[Iaude] MPEC G153: 2024 GF3 [a=1.38,e=0.36,i=18.1,H=25.6]
    mpec at cfa.harvard.edu 
    mpec at cfa.harvard.edu
       
    Thu Apr 11 07:21:09 EDT 2024
    
    
  
M.P.E.C. 2024-G153                               Issued 2024 April 11, 11:19 UT
     The Minor Planet Electronic Circulars contain information on unusual
         minor planets, routine data on comets and natural satellites,
         and occasional editorial announcements.  They are published
    on behalf of Division F of the International Astronomical Union by the
          Minor Planet Center, Smithsonian Astrophysical Observatory,
                          Cambridge, MA 02138, U.S.A.
			  
             Prepared using the Tamkin Foundation Computer Network
                              MPC at CFA.HARVARD.EDU
            URL https://www.minorplanetcenter.net/    ISSN 1523-6714
                                    2024 GF3                                    
Observations:
     K24G03F  C2024 04 03.36564 13 21 11.40 +26 24 04.5          22.1 GVEG153V00
     K24G03F  C2024 04 03.37563 13 21 08.17 +26 23 40.8          23.3 GVEG153V00
     K24G03F  C2024 04 03.38061 13 21 06.58 +26 23 28.9          22.1 GVEG153V00
     K24G03F*1C2024 04 10.34707812 23 14.219+16 32 57.88         20.46GVEG153G96
     K24G03F 1C2024 04 10.35228512 23 09.730+16 32 07.19         20.79GVEG153G96
     K24G03F 1C2024 04 10.35750012 23 05.150+16 31 14.77         21.08GVEG153G96
     K24G03F 1C2024 04 10.36273212 23 00.618+16 30 23.00         20.59GVEG153G96
     K24G03F KC2024 04 10.44672512 21 47.966+16 16 16.57         20.66GVEG153I52
     K24G03F KC2024 04 10.44861212 21 46.325+16 15 57.49         20.85GVEG153I52
     K24G03F KC2024 04 10.45051112 21 44.701+16 15 38.23         20.46GVEG153I52
     K24G03F KC2024 04 10.45239412 21 43.067+16 15 19.01         20.16GVEG153I52
     K24G03F 1C2024 04 10.90861 12 15 15.22 +14 54 30.8          19.8 VXEG153033
     K24G03F 1C2024 04 10.90953 12 15 14.34 +14 54 20.1          19.9 VXEG153033
     K24G03F 1C2024 04 10.91046 12 15 13.46 +14 54 09.8          19.9 VXEG153033
     K24G03F 1C2024 04 10.91139 12 15 12.58 +14 53 59.6          19.8 VXEG153033
     K24G03F KB2024 04 10.94186112 14 45.14 +14 48 33.0          20.0 GXEG153I93
     K24G03F KB2024 04 10.94854112 14 38.75 +14 47 17.1          20.6 GXEG153I93
     K24G03F KB2024 04 10.99092112 13 57.99 +14 39 21.5          20.0 GXEG153958
     K24G03F KB2024 04 10.99569012 13 53.42 +14 38 27.4          20.1 GXEG153958
     K24G03F KB2024 04 11.00045912 13 48.88 +14 37 32.1                XEG153958
     K24G03F KC2024 04 11.20213412 10 44.68 +13 58 40.8          21.3 GXEG153858
     K24G03F KC2024 04 11.20634612 10 40.47 +13 57 51.1          20.7 GXEG153858
     K24G03F KC2024 04 11.21068212 10 36.10 +13 56 59.3          20.4 GXEG153858
Observer details:
033 Karl Schwarzschild Observatory, Tautenburg.  Observers S. Melnikov, C.
    Hogner, F. Ludwig, M. Hartmann, B. Stecklum.  Measurer B. Stecklum.
    1.34-m f/3 Schmidt + CCD.
858 Tebbutt Observatory, Edgewood.  Observer F. B. Zoltowski.  0.51-m f/8.1
    Schmidt-Cassegrain + CCD.
958 Observatoire de Dax.  Observer P. Dupouy.  0.50-m f/4.5 Reflector + CMO.
G96 Mt. Lemmon Survey.  Observer A. D. Grauer.  Measurers T. Beuden, V. F.
    Carvajal, D. Fay, J. B. Fazekas, D. C. Fuls, A. R. Gibbs, A. D. Grauer, H.
    Groeller, J. K. Hogan, R. A. Kowalski, S. M. Larson, G. J. Leonard, D.
    Rankin, R. L. Seaman, F. C. Shelly, K. W. Wierzchos.  1.5-m reflector +
    10K CCD.
I52 Steward Observatory, Mt. Lemmon Station.  Observer G. J. Leonard.
    Measurers T. Beuden, V. F. Carvajal, D. Fay, J. B. Fazekas, D. C. Fuls, A.
    R. Gibbs, A. D. Grauer, H. Groeller, J. K. Hogan, R. A. Kowalski, S. M.
    Larson, G. J. Leonard, D. Rankin, R. L. Seaman, F. C. Shelly, K. W.
    Wierzchos.  1.0-m prime focus + CCD.
I93 St Pardon de Conques.  Observer F. Losse.  0.40-m f/3.7 reflector + CCD.
V00 Kitt Peak-Bok.  Observers V. F. Carvajal, K. W. Wierzchos.  Measurers B.
    Gray, D. Rankin, F. C. Shelly.  2.25-m reflector + mosaic CCD.
Orbital elements:
2024 GF3                                                 Earth MOID = 0.0267 AU
Epoch 2024 Mar. 31.0 TT = JDT 2460400.5                 Veres                   
M 320.39464              (2000.0)            P               Q                  
n   0.60724552     Peri.  243.56397     -0.08648596     +0.98915697             
a   1.3811044      Node    22.44804     -0.76692664     +0.00994144             
e   0.3576271      Incl.   18.11032     -0.63588026     -0.14652530             
P   1.62           H   25.62          G   0.15           U   8                  
Residuals in seconds of arc
240403 V00 (0.0   0.6-)   240410 I52  0.1-  0.1+    240410 I93  0.7+  0.9-
240403 V00  0.1-  0.1-    240410 I52  0.1+  0.2+    240410 958  0.0   1.2+
240403 V00  0.1+  0.1+    240410 I52  0.2-  0.2+    240410 958  0.6+  1.5+
240410 G96  0.2-  0.5-    240410 033  0.4+  0.4+    240411 958  1.7+  0.7+
240410 G96  0.3+  0.3+    240410 033  0.2+  0.1-    240411 858  0.8-  0.4-
240410 G96  0.4-  0.4-    240410 033  0.2+  0.0     240411 858  0.3-  0.0
240410 G96  0.2-  0.2-    240410 033  0.3+  0.1+    240411 858  0.2-  0.2-
240410 I52  0.2+  0.1-    240410 I93  0.5+  0.0
Ephemeris:
2024 GF3                 a,e,i = 1.38, 0.36, 18                  q = 0.8872
Date    TT    R. A. (2000) Decl.     Delta      r    Elong.  Phase     V
2024 03 12    13 57 01.1 +29 29 44   0.2852  1.2158   136.3    34.4    24.7
...
2024 03 27    13 44 39.2 +29 07 24   0.1632  1.1321   142.9    32.2    23.3
...
2024 04 04    13 18 00.7 +25 57 39   0.1029  1.0886   147.8    29.3    22.1
...
2024 04 10    12 27 55.1 +17 28 10   0.06200 1.0570   152.1    26.3    20.9
2024 04 11    12 13 52.0 +14 39 03   0.05598 1.0519   152.0    26.6    20.7
2024 04 12    11 57 06.6 +11 05 36   0.05039 1.0468   151.0    27.6    20.5
...
2024 04 18    08 51 39.4 -27 59 13   0.03668 1.0171   109.8    68.3    20.9
...
2024 04 26    05 00 04.2 -43 27 14   0.07682 0.9805    68.3   107.5    24.0
...
2024 05 11    03 28 47.6 -39 18 22   0.1807  0.9250    57.3   113.2    26.1
M. P. C. Staff               (C) Copyright 2024 MPC           M.P.E.C. 2024-G153
    
    
More information about the Iaude
mailing list